Station BFTN7 - 8656483 - Beaufort, NC Image indicating link to RSS feed of recent meteorological observations for station BFTN7


Conditions at BFTN7 as of
(2:30 am EDT)
0630 GMT on 05/23/2024:
     

Click on the graph icon in the table below to see a time series plot of the last five days of that observation.

5-day plot - Wind Direction Wind Direction (WDIR): SW ( 220 deg true )
5-day plot - Wind Speed Wind Speed (WSPD): 2.9 kts
5-day plot - Wind Gust Wind Gust (GST): 6.0 kts
5-day plot - Atmospheric Pressure Atmospheric Pressure (PRES):30.01 in
5-day plot - Air Temperature Air Temperature (ATMP): 71.8 °F
5-day plot - Water Temperature Water Temperature (WTMP): 74.7 °F
5-day plot - Wind Speed at 10 Meters Wind Speed at 10 meters (WSPD10M): 3.9 kts
5-day plot - Wind Speed at 20 Meters Wind Speed at 20 meters (WSPD20M): 3.9 kts
5-day plot -  Wind Speed, Wind Gust and Atmospheric Pressure Combined plot of Wind Speed, Gust, and Air Pressure
NOS Water Level Observation Network Water Level
Previous observations
TIME
(EDT)
5-day plot - Wind Direction
WDIR
 
5-day plot - Wind Speed
WSPD
kts
5-day plot - Wind Gust
GST
kts
5-day plot - Wave Height
WVHT
ft
5-day plot - Dominant Wave Period
DPD
sec
5-day plot - Average Wave Period
APD
sec
5-day plot - Mean Wave Direction
MWD
 
5-day plot - Atmospheric Pressure
PRES
in
5-day plot - Pressure Tendency
PTDY
in
5-day plot - Air Temperature
ATMP
°F
5-day plot - Water Temperature
WTMP
°F
5-day plot - Dew Point
DEWP
°F
5-day plot - Salinity
SAL
psu
5-day plot - Visibility
VIS
nmi
5-day plot - Tide (above MLLW)
TIDE
ft
2024-05-23 02:24 amSSW 4.1 6.0----30.01- 71.8 74.7----
2024-05-23 02:18 amSSW 4.1 6.0----30.01- 71.8 74.7----
2024-05-23 02:12 am SW 2.9 6.0----30.01- 71.8 74.7----
2024-05-23 02:06 am SW 5.1 7.0----30.02- 71.8 74.5----
2024-05-23 02:00 am SW 5.1 7.0----30.02+0.00- 74.5----
2024-05-23 01:54 am SW 5.1 7.0----30.02-- 74.5----
2024-05-23 01:48 am SW 4.1 6.0----30.02- 71.8 74.5----
2024-05-23 01:42 amSSW 4.1 6.0----30.02- 71.8 74.5----
2024-05-23 01:36 am SW 4.1 6.0----30.02- 71.8 74.5----
2024-05-23 01:30 amSSW 4.1 6.0----30.02- 71.6 74.5----
2024-05-23 01:24 amSSW 4.1 5.1----30.02- 71.6 74.5----
2024-05-23 01:18 amSSW 5.1 8.0----30.02- 71.8 74.5----
2024-05-23 01:12 am S 4.1 7.0----30.02- 71.8 74.5----
2024-05-23 01:06 am S 5.1 7.0----30.02- 71.6 74.3----
2024-05-23 01:00 am S 5.1 6.0----30.01-0.01 71.6 74.3----
2024-05-23 12:54 amSSW 5.1 7.0----30.02- 71.6 74.3----
2024-05-23 12:48 am S 5.1 7.0----30.02- 71.6 74.3----
2024-05-23 12:42 amSSW 4.1 7.0----30.03- 71.6 74.1----
2024-05-23 12:36 amSSW 5.1 6.0----30.03- 71.8 74.1----
2024-05-23 12:30 amSSW 5.1 6.0----30.03- 71.8 73.9----
2024-05-23 12:24 am S 4.1 6.0----30.03- 71.6 73.9----
2024-05-23 12:18 am S 5.1 6.0----30.03- 71.8 73.9----
2024-05-23 12:12 am S 5.1 7.0----30.03- 72.0 73.8----
2024-05-23 12:06 am S 4.1 6.0----30.03- 72.0 73.8----
2024-05-23 12:00 amSSW 2.9 5.1----30.03+0.02 71.8 73.8----
2024-05-22 11:54 pmSSW 2.9 6.0----30.03- 71.8 73.6----
2024-05-22 11:48 pmSSW 4.1 6.0----30.03- 71.8 73.6----
2024-05-22 11:42 pmSSW 4.1 6.0----30.02- 72.0 73.6----
2024-05-22 11:36 pmSSW 4.1 6.0----30.02- 71.8 73.6----
2024-05-22 11:30 pmSSW 4.1 6.0----30.02- 71.6 73.6----
2024-05-22 11:24 pm S 4.1 6.0----30.02- 71.6 73.6----
2024-05-22 11:18 pm S 5.1 8.0----30.02- 71.6 73.6----
2024-05-22 11:12 pm S 6.0 7.0----30.02- 71.6 73.4----
2024-05-22 11:06 pm S 5.1 7.0----30.01- 71.6 73.4----
2024-05-22 11:00 pm S 6.0 7.0----30.01+0.02 71.6 73.4----
2024-05-22 10:54 pm S 6.0 7.0----30.01- 71.6 73.2----
2024-05-22 10:48 pm S 5.1 7.0----30.02- 71.6 73.2----
2024-05-22 10:42 pm S 5.1 6.0----30.02- 71.8 73.2----
2024-05-22 10:36 pm S 5.1 6.0----30.02- 71.6 73.2----
2024-05-22 10:30 pm S 5.1 6.0----30.02- 71.6 73.2----
2024-05-22 10:24 pm S 4.1 6.0----30.02- 71.6 73.2----
2024-05-22 10:18 pm S 4.1 6.0----30.02- 71.6 73.0----
2024-05-22 10:12 pm S 5.1 7.0----30.02- 71.8 73.0----
2024-05-22 10:06 pm S 5.1 7.0----30.02- 71.8 73.2----
2024-05-22 10:00 pm S 5.1 7.0----30.03+0.04 71.8 73.2----
2024-05-22 09:54 pm S 4.1 6.0----30.03- 71.8 73.4----
2024-05-22 09:48 pm S 5.1 7.0----30.02- 71.8 73.2----
2024-05-22 09:42 pm S 5.1 7.0----30.02- 72.0 72.7----
2024-05-22 09:36 pmSSW 4.1 6.0----30.02- 72.0 72.3----
2024-05-22 09:30 pmSSW 4.1 7.0----30.02- 71.8 72.0----
2024-05-22 09:24 pmSSW 4.1 6.0----30.02- 71.8 71.1----
2024-05-22 09:18 pmSSW 2.9 5.1----30.02- 71.8 71.1----
2024-05-22 09:12 pmSSW 2.9 6.0----30.02- 71.8 71.1----
2024-05-22 09:06 pmSSW 2.9 6.0----30.02- 71.8 71.1----
2024-05-22 09:00 pmSSW 4.1 5.1----30.01+0.02 71.8 71.1----
2024-05-22 08:54 pmSSW 4.1 5.1----30.01- 71.8 71.1----
2024-05-22 08:48 pmSSW 2.9 4.1----30.01- 71.8 71.1----
2024-05-22 08:42 pmSSW 2.9 4.1----30.01- 71.8 71.1----
2024-05-22 08:36 pmSSW 1.9 5.1----30.01- 71.8 71.1----
2024-05-22 08:30 pmSSW 2.9 4.1----30.00- 72.0 71.1----
2024-05-22 08:24 pmSSW 2.9 5.1----30.00- 72.0 71.1----
2024-05-22 08:18 pm S 2.9 4.1----30.00- 72.1 71.1----
2024-05-22 08:12 pmSSW 2.9 5.1----30.00- 72.3 71.1----
2024-05-22 08:06 pmSSW 4.1 5.1----30.00- 72.1 71.2----
2024-05-22 08:00 pmSSW 4.1 5.1----29.99+0.00 72.1 71.2----
2024-05-22 07:54 pmSSW 4.1 6.0----29.99- 72.3 71.2----
2024-05-22 07:48 pmSSW 2.9 6.0----29.99- 72.3 71.2----
2024-05-22 07:42 pm S 4.1 6.0----29.99- 72.3 71.2----
2024-05-22 07:36 pm S 5.1 6.0----29.99- 72.7 71.2----
2024-05-22 07:30 pm S 4.1 5.1----29.99- 73.0 71.2----
2024-05-22 07:24 pm S 4.1 5.1----29.99- 73.2 71.4----
2024-05-22 07:18 pmSSW 2.9 5.1----29.99- 73.4 71.4----
2024-05-22 07:12 pm S 4.1 6.0----29.99- 73.4 71.6----
2024-05-22 07:06 pm S 4.1 7.0----29.98- 73.6 72.0----
2024-05-22 07:00 pm S 5.1 7.0----29.99-0.02 73.6 72.0----
2024-05-22 06:54 pmSSW 5.1 7.0----29.98- 73.9 72.1----
2024-05-22 06:48 pmSSW 5.1 8.9----29.98-- 72.3----
2024-05-22 06:42 pm S 5.1 8.0----29.99-- 72.3----
2024-05-22 06:36 pm S 5.1 8.0----29.99-- 72.5----
2024-05-22 06:30 pm S 5.1 8.0----29.98- 73.9 72.7----
2024-05-22 06:24 pm S 5.1 8.0----29.99- 73.9 72.7----
2024-05-22 06:18 pm S 6.0 8.0----29.99- 73.9 73.0----
2024-05-22 06:12 pm S 5.1 8.0----29.99- 73.9 73.4----
2024-05-22 06:06 pmSSW 5.1 8.0----29.99- 74.1 73.6----
2024-05-22 06:00 pm-------29.99-0.04 73.9 73.9----
2024-05-22 05:54 pm-------29.99- 74.1 74.3----
2024-05-22 05:48 pm S 6.0 7.0----29.99-- 75.0----
2024-05-22 05:42 pm S 6.0 9.9----29.99-- 75.2----
2024-05-22 05:36 pm S 7.0 9.9----29.99-- 75.4----
2024-05-22 05:30 pm S 6.0 8.9----29.99- 73.9 75.4----
2024-05-22 05:24 pm S 6.0 8.9----29.99- 73.8 75.4----
2024-05-22 05:18 pm S 7.0 9.9----30.00- 73.6 75.6----
2024-05-22 05:12 pm S 7.0 9.9----29.99- 73.4 75.6----
2024-05-22 05:06 pm S 8.0 9.9----29.99- 73.2 75.6----
2024-05-22 05:00 pm S 8.9 11.1----30.00- 73.4 75.9----
2024-05-22 04:54 pm S 8.0 11.1----30.00- 73.0 75.9----
2024-05-22 04:48 pm S 8.0 9.9----30.00- 73.6 75.9----
2024-05-22 04:42 pm S 7.0 9.9----30.00- 73.4 75.7----
2024-05-22 04:36 pm S 7.0 11.1----30.00- 73.4 75.6----
2024-05-22 04:30 pm S 8.9 9.9----30.00- 73.8 75.2----
2024-05-22 04:24 pm S 8.0 11.1----30.00- 73.4 75.0----
2024-05-22 04:18 pm S 8.9 9.9----30.00- 73.6 75.0----
2024-05-22 04:12 pm S 8.0 9.9----30.01- 73.8 75.0----
2024-05-22 04:06 pm S 7.0 9.9----30.01- 73.6 75.0----
2024-05-22 04:00 pm S 8.9 9.9----30.01-0.04 73.6 75.0----
2024-05-22 03:54 pm S 7.0 9.9----30.01- 74.3 75.0----
2024-05-22 03:48 pm S 6.0 9.9----30.02- 74.5 75.2----
2024-05-22 03:42 pm S 6.0 9.9----30.02- 74.5 75.2----
2024-05-22 03:36 pm S 7.0 9.9----30.02- 73.9 75.4----
2024-05-22 03:30 pm S 7.0 9.9----30.03- 73.9 75.4----
2024-05-22 03:24 pm S 7.0 9.9----30.03- 74.5 75.7----
2024-05-22 03:18 pm S 7.0 11.1----30.03- 73.9 75.7----
2024-05-22 03:12 pm S 8.9 11.1----30.03- 74.3 75.6----
2024-05-22 03:06 pm S 8.9 9.9----30.03- 74.5 75.4----
2024-05-22 03:00 pm S 8.0 9.9----30.03-0.03 74.8 75.2----
2024-05-22 02:54 pm S 8.0 11.1----30.03- 75.2 74.7----
2024-05-22 02:48 pm S 7.0 9.9----30.03- 75.6 73.9----
2024-05-22 02:42 pm S 6.0 8.0----30.03- 75.4 73.8----
2024-05-22 02:36 pm S 7.0 9.9----30.04- 75.6 73.8----
2024-05-22 02:30 pm S 8.0 9.9----30.04- 75.2 73.8----
2024-05-22 02:24 pm S 7.0 8.9----30.04- 75.9 73.9----
2024-05-22 02:18 pm S 8.0 9.9------- 73.9----
2024-05-22 02:12 pm S 7.0 9.9------- 74.1----
2024-05-22 02:06 pm S 7.0 8.9------- 74.5----
2024-05-22 02:00 pm S 6.0 9.9------- 74.7----
2024-05-22 01:54 pm S 6.0 8.0------- 74.8----
2024-05-22 01:48 pm S 7.0 9.9------- 74.8----
2024-05-22 01:42 pm S 6.0 9.9------- 74.7----
2024-05-22 01:36 pm S 8.0 9.9------- 74.8----
2024-05-22 01:30 pm S 7.0 8.9----30.04-------
2024-05-22 01:24 pm S 8.0 8.9----30.04-------
2024-05-22 01:18 pm S 8.0 9.9------- 75.2----
2024-05-22 01:12 pm S 7.0 9.9------- 75.0----
2024-05-22 01:06 pm S 7.0 8.9------- 74.8----
2024-05-22 01:00 pm S 7.0 9.9----30.05-0.01- 75.0----
2024-05-22 12:54 pm S 7.0 8.9----30.05-- 74.8----
2024-05-22 12:48 pm S 7.0 8.9------- 74.7----
2024-05-22 12:42 pm S 6.0 8.0------- 74.5----
2024-05-22 12:36 pm S 7.0 8.9------- 74.3----
2024-05-22 12:30 pm S 6.0 8.0------------
2024-05-22 12:24 pm S 6.0 8.0------------
2024-05-22 12:18 pm S 6.0 8.0------ 74.8 73.9----
2024-05-22 12:12 pm S 7.0 8.0------ 74.7 73.9----
2024-05-22 12:06 pm S 5.1 8.0------ 74.7 73.9----
2024-05-22 12:00 pm S 6.0 8.0----30.06-0.01 74.8 73.9----
2024-05-22 11:54 am S 5.1 8.0----30.07- 75.2 73.9----
2024-05-22 11:48 am S 5.1 8.0----30.06- 74.7 73.9----
2024-05-22 11:42 am S 6.0 8.9----30.06- 74.8 73.8----
2024-05-22 11:36 am S 7.0 8.9----30.06- 74.8 73.8----
2024-05-22 11:30 am S 5.1 7.0----30.06- 75.4 73.6----
2024-05-22 11:24 amSSW 4.1 6.0----30.06- 76.6 73.6----
2024-05-22 11:18 am S 4.1 6.0----30.06- 76.6 73.4----
2024-05-22 11:12 amSSW 4.1 5.1----30.06- 76.5 73.2----
2024-05-22 11:06 am S 5.1 5.1----30.06- 75.9 73.2----
2024-05-22 11:00 am S 4.1 6.0----30.06+0.00 75.7 73.2----
2024-05-22 10:54 amSSE 2.9 5.1----30.06- 75.0 73.0----
2024-05-22 10:48 am S 4.1 5.1----30.07-- 73.0----
2024-05-22 10:42 am S 4.1 5.1----30.07-- 73.0----
2024-05-22 10:36 am S 2.9 5.1----30.07-- 72.9----
2024-05-22 10:30 am S 4.1 5.1------------
2024-05-22 10:24 am SE 1.0 2.9------------
2024-05-22 10:18 amNNW 1.0 1.9------------
2024-05-22 10:12 am- 0.0 1.9------------
2024-05-22 10:06 am N 1.0 2.9------------
2024-05-22 10:00 amNNE 2.9 4.1----30.06+0.02 73.6 72.7----
2024-05-22 09:54 amNNE 2.9 4.1----30.06- 73.6 72.7----
2024-05-22 09:48 amNNE 2.9 4.1----30.06-- 72.7----
2024-05-22 09:42 amNNE 2.9 4.1----30.07-- 72.7----
2024-05-22 09:36 am N 1.9 4.1----30.07-- 72.7----
2024-05-22 09:30 amNNE 2.9 5.1------------
2024-05-22 09:24 am N 2.9 4.1------------
2024-05-22 09:18 amNNE 2.9 5.1----30.07-- 72.5----
2024-05-22 09:12 amNNE 2.9 5.1----30.07-- 72.5----
2024-05-22 09:06 am N 2.9 5.1----30.07-- 72.5----
2024-05-22 09:00 am N 2.9 5.1----30.07+0.05 69.3 72.5----
2024-05-22 08:54 am N 1.9 5.1----30.07- 69.4 72.3----
2024-05-22 08:48 am N 2.9 6.0----30.07- 68.5 72.3----
2024-05-22 08:42 am N 2.9 6.0----30.07- 68.5 72.3----
2024-05-22 08:36 am N 2.9 5.1----30.06- 68.2 72.1----
2024-05-22 08:30 am N 1.9 4.1----30.06- 67.8 72.0----
2024-05-22 08:24 amNNE 4.1 5.1----30.06- 67.6 71.8----
2024-05-22 08:18 am N 1.9 6.0----30.06- 67.5 71.4----
2024-05-22 08:12 am N 4.1 6.0----30.06- 66.7 71.2----
2024-05-22 08:06 am N 2.9 5.1----30.06- 66.6 71.1----
2024-05-22 08:00 amNNW 5.1 6.0----30.06+0.06 66.6 71.1----
2024-05-22 07:54 amNNW 2.9 5.1----30.06- 66.7 71.1----
2024-05-22 07:48 am N 1.9 6.0----30.05- 66.6 71.1----
2024-05-22 07:42 amNNW 5.1 6.0----30.05- 66.2 71.1----
2024-05-22 07:36 am N 2.9 5.1----30.05- 66.2 71.1----
2024-05-22 07:30 am N 1.9 5.1----30.04- 66.0 71.2----
2024-05-22 07:24 am N 1.9 5.1----30.04- 66.0 71.4----
2024-05-22 07:18 am N 1.9 6.0----30.04- 66.0 72.0----
2024-05-22 07:12 amNNW 4.1 6.0----30.04- 65.8 72.1----
2024-05-22 07:06 amNNW 5.1 6.0----30.04- 65.8 72.1----
2024-05-22 07:00 amNNW 5.1 6.0----30.04+0.04 66.2 72.3----
2024-05-22 06:54 amNNW 4.1 5.1----30.04- 66.2 72.3----
2024-05-22 06:48 amNNW 4.1 5.1----30.03- 66.2 72.3----
2024-05-22 06:42 amNNW 4.1 6.0----30.03- 66.2 72.1----
2024-05-22 06:36 am N 2.9 7.0----30.03- 66.4 72.1----
2024-05-22 06:30 am N 1.9 4.1----30.03- 66.4 72.1----
2024-05-22 06:24 am N 2.9 7.0----30.03- 66.6 72.1----
2024-05-22 06:18 amNNW 5.1 7.0----30.03- 67.1 72.1----
2024-05-22 06:12 amNNW 4.1 6.0----30.03- 67.3 72.1----
2024-05-22 06:06 amNNW 2.9 5.1----30.03- 67.5 72.1----
2024-05-22 06:00 amNNW 2.9 4.1----30.02+0.02 67.8 72.1----
2024-05-22 05:54 am N 2.9 2.9----30.02- 67.8 72.1----
2024-05-22 05:48 am N 1.0 1.9----30.02- 67.8 72.1----
2024-05-22 05:42 am N 1.0 1.0----30.02- 67.6 72.1----
2024-05-22 05:36 am N 1.0 1.9----30.01- 67.6 72.1----
2024-05-22 05:30 am N 1.0 1.9----30.01- 67.6 72.1----
2024-05-22 05:24 am N 1.0 1.9----30.01- 67.6 72.0----
2024-05-22 05:18 am N 1.9 1.9----30.01- 67.3 72.1----
2024-05-22 05:12 am N 1.0 1.9----30.01- 67.3 72.1----
2024-05-22 05:06 am- 0.0 1.9----30.01- 67.5 72.1----
2024-05-22 05:00 amESE 1.9 1.9----30.01+0.00 68.0 72.3----
2024-05-22 04:54 am E 1.9 2.9----30.01- 68.0 72.7----
2024-05-22 04:48 am- 0.0 1.9----30.01- 68.4 72.7----
2024-05-22 04:42 amSSE 1.9 2.9----30.01- 68.4 72.7----
2024-05-22 04:36 am SE 2.9 4.1----30.00- 68.4 72.7----
2024-05-22 04:30 am SE 2.9 4.1----30.00- 68.4 72.7----
2024-05-22 04:24 amSSE 2.9 4.1----30.00- 68.4 72.7----
2024-05-22 04:18 amSSE 2.9 4.1----30.00- 68.2 72.7----
2024-05-22 04:12 amSSE 4.1 5.1----30.00- 68.4 72.7----
2024-05-22 04:06 amSSE 2.9 4.1----30.00- 68.4 72.7----
2024-05-22 04:00 am SE 2.9 4.1----30.00+0.00 68.4 72.7----
2024-05-22 03:54 amSSE 2.9 4.1----30.00- 68.5 72.7----
2024-05-22 03:48 am SE 2.9 4.1----29.99- 68.4 72.7----
2024-05-22 03:42 am SE 2.9 5.1----29.99- 68.2 72.7----
2024-05-22 03:36 am SE 4.1 5.1----29.99- 68.4 72.7----
2024-05-22 03:30 am SE 2.9 4.1----29.99- 68.2 72.7----
2024-05-22 03:24 amSSE 4.1 5.1----29.99- 68.2 72.7----
2024-05-22 03:18 amSSE 4.1 4.1----29.99- 68.2 72.7----
2024-05-22 03:12 amSSE 2.9 4.1----29.99- 68.4 72.5----
2024-05-22 03:06 amSSE 4.1 5.1----30.00- 68.4 72.5----
2024-05-22 03:00 amSSE 4.1 5.1----30.00-0.01 68.2 72.5----
2024-05-22 02:54 amSSE 4.1 5.1----30.00- 68.4 72.5----